Weather History for Maastricht, Netherlands

Change the Weather History Date:

Saturday, January 11, 2014

  Actual Average Record
Temperature  
Mean Temperature 40 °F -  
Max Temperature 47 °F 41 °F 55 °F (2008)
Min Temperature 33 °F 31 °F 17 °F (1997)
Degree Days  
Heating Degree Days 25    
Moisture  
Dew Point 37 °F    
Average Humidity 89    
Maximum Humidity 100    
Minimum Humidity 76    
Precipitation  
Precipitation 0.01 in 0.07 in - ()
Sea Level Pressure  
Sea Level Pressure 30.06 in    
Wind  
Wind Speed 10 mph ()    
Max Wind Speed 18 mph    
Max Gust Speed -    
Visibility 8.0 miles    
Events Rain    
Averages and records for this station are not official NWS values.
T = Trace of Precipitation, MM = Missing Value Source: Averaged Metar Reports

Daily Weather History Graph

Daily Weather History Graph

Search for Another Location

Airport:

Trip Planner

Search our weather history database for the weather conditions in past years. The results will help you decide how hot, cold, wet, or windy it might be!

Date:

Astronomy

Jan. 11, 2014 Rise Set
Actual Time 8:36 AM CET 4:53 PM CET
Civil Twilight 7:57 AM CET 5:32 PM CET
Nautical Twilight 7:16 AM CET 6:13 PM CET
Astronomical Twilight 6:36 AM CET 6:53 PM CET
Moon 1:32 PM CET (1/11) 4:18 AM CET (1/11)
Length of Visible Light 9h 34m
Length of Day
8h 17m
Waxing Gibbous, 81% of the Moon is Illuminated
Jan 11
Waxing Gibbous
Jan 16
Full
Jan 24
Last Quarter
Jan 30
New
Feb 6
First Quarter

Hourly Weather History & Observations

Time (CET) Temp. Windchill Dew Point Humidity Pressure Visibility Wind Dir Wind Speed Gust Speed Precip Events Conditions
12:00 AM 38 °F - 35 °F 87% 30.06 in 10 mi SSW 11.2 mph - -   Scattered Clouds
12:25 AM 37.4 °F 29.8 °F 35.6 °F 93% 30.04 in 6.2 mi SSW 11.5 mph - N/A   Unknown
12:55 AM 37.4 °F 29.8 °F 35.6 °F 93% 30.01 in 6.2 mi SSW 11.5 mph - N/A   Unknown
1:00 AM 37 °F - 35 °F 87% 30.05 in 9 mi SSW 11.2 mph - -   Partly Cloudy
1:25 AM 37.4 °F 29.8 °F 33.8 °F 87% 30.01 in 6.2 mi SSW 11.5 mph - N/A   Unknown
1:55 AM 35.6 °F 27.5 °F 33.8 °F 93% 30.01 in 6.2 mi SSW 11.5 mph - N/A   Unknown
2:00 AM 36 °F - 34 °F 88% 30.04 in 11 mi SSW 11.2 mph - -  
2:25 AM 35.6 °F 27.5 °F 33.8 °F 93% 30.01 in 6.2 mi SSW 11.5 mph - N/A   Unknown
2:55 AM 35.6 °F 27.5 °F 33.8 °F 93% 30.01 in 6.2 mi SSW 11.5 mph - N/A   Unknown
3:00 AM 35 °F - 33 °F 92% 30.04 in 11 mi SSW 11.2 mph - -  
3:25 AM 35.6 °F 28.0 °F 33.8 °F 93% 30.01 in 6.2 mi SSW 10.4 mph - N/A   Unknown
3:55 AM 35.6 °F 27.5 °F 33.8 °F 93% 30.01 in 6.2 mi SSW 11.5 mph - N/A   Unknown
4:00 AM 35 °F - 33 °F 87% 30.03 in 17 mi SSW 11.2 mph - -   Partly Cloudy
4:25 AM 35.6 °F 27.1 °F 33.8 °F 93% 29.98 in 6.2 mi SSW 12.7 mph - N/A   Unknown
4:55 AM 35.6 °F 27.5 °F 33.8 °F 93% 29.98 in 6.2 mi SSW 11.5 mph - N/A   Unknown
5:00 AM 35 °F - 33 °F 90% 30.01 in 18 mi SSW 11.2 mph - -   Mostly Cloudy
5:25 AM 35.6 °F 27.5 °F 33.8 °F 93% 29.98 in 6.2 mi SSW 11.5 mph - N/A   Unknown
5:55 AM 35.6 °F 28.0 °F 33.8 °F 93% 29.98 in 6.2 mi SSW 10.4 mph - N/A   Unknown
6:00 AM 36 °F - 34 °F 91% 30.00 in 14 mi SSW 8.9 mph - -   Overcast
6:25 AM 37.4 °F 30.3 °F 35.6 °F 93% 29.98 in 6.2 mi SSW 10.4 mph - N/A   Unknown
6:55 AM 37.4 °F 30.3 °F 35.6 °F 93% 29.98 in 6.2 mi SSW 10.4 mph - N/A   Unknown
7:00 AM 38 °F - 36 °F 87% 30.00 in 12 mi SSW 11.2 mph - -   Partly Cloudy
7:25 AM 37.4 °F 30.3 °F 35.6 °F 93% 29.98 in 6.2 mi SSW 10.4 mph - N/A   Unknown
7:55 AM 39.2 °F 32.0 °F 37.4 °F 93% 29.98 in 6.2 mi SSW 11.5 mph - N/A   Unknown
8:00 AM 38 °F - 36 °F 92% 30.00 in 12 mi SSW 11.2 mph - -   Overcast
8:25 AM 39.2 °F 31.6 °F 37.4 °F 93% 29.98 in 6.2 mi SSW 12.7 mph - N/A   Unknown
8:55 AM 39.2 °F 31.6 °F 37.4 °F 93% 29.98 in 6.2 mi SSW 12.7 mph - N/A   Unknown
9:00 AM 40 °F - 38 °F 88% 30.01 in 11 mi SSW 13.4 mph - -   Overcast
9:25 AM 41.0 °F 33.9 °F 39.2 °F 93% 29.98 in 6.2 mi SSW 12.7 mph - N/A   Unknown
9:55 AM 41.0 °F 34.3 °F 39.2 °F 93% 29.98 in 6.2 mi SSW 11.5 mph - N/A   Unknown
10:00 AM 41 °F - 38 °F 87% 30.02 in 12 mi SSW 11.2 mph - -   Mostly Cloudy
10:25 AM 41.0 °F 34.7 °F 39.2 °F 93% 29.98 in 6.2 mi SSW 10.4 mph - N/A   Mostly Cloudy
10:55 AM 42.8 °F 36.2 °F 39.2 °F 87% 30.01 in 6.2 mi SW 12.7 mph - N/A   Scattered Clouds
11:00 AM 43 °F - 40 °F 83% 30.04 in 18 mi SW 13.4 mph - -   Scattered Clouds
11:25 AM 44.6 °F 37.8 °F 41.0 °F 87% 30.01 in 6.2 mi SW 15.0 mph - N/A   Mostly Cloudy
11:55 AM 46.4 °F 39.8 °F 41.0 °F 81% 30.01 in 6.2 mi SW 16.1 mph - N/A   Unknown
12:00 PM 46 °F - 41 °F 77% 30.02 in 14 mi SW 17.9 mph - -  
12:25 PM 46.4 °F 40.1 °F 41.0 °F 81% 29.98 in 6.2 mi SW 15.0 mph - N/A   Unknown
12:55 PM 48.2 °F - 41.0 °F 76% 29.98 in 6.2 mi WSW 11.5 mph - N/A   Overcast
1:00 PM 47 °F - 42 °F 77% 30.02 in 17 mi SW 13.4 mph - -   Partly Cloudy
1:25 PM 46.4 °F 41.1 °F 41.0 °F 81% 29.98 in 6.2 mi WSW 11.5 mph - N/A   Mostly Cloudy
1:55 PM 46.4 °F 41.1 °F 41.0 °F 81% 29.98 in 4.3 mi WSW 11.5 mph - N/A Rain Drizzle
2:00 PM 46 °F - 42 °F 81% 30.02 in 6 mi WSW 11.2 mph - - Rain Light Drizzle
2:25 PM 44.6 °F 38.8 °F 42.8 °F 93% 30.01 in 5.6 mi West 11.5 mph - N/A Rain Light Rain
2:55 PM 44.6 °F 38.4 °F 42.8 °F 93% 30.01 in 5.6 mi West 12.7 mph - N/A Rain Light Rain
3:00 PM 44 °F - 42 °F 89% 30.05 in 6 mi West 8.9 mph - - Rain Light Drizzle
3:25 PM 44.6 °F 38.8 °F 41.0 °F 87% 30.04 in 6.2 mi West 11.5 mph - N/A   Mostly Cloudy
3:55 PM 44.6 °F 39.7 °F 41.0 °F 87% 30.04 in 6.2 mi West 9.2 mph - N/A   Overcast
4:00 PM 44 °F - 40 °F 83% 30.09 in 9 mi West 8.9 mph - - Rain Drizzle
4:25 PM 44.6 °F 40.2 °F 39.2 °F 81% 30.06 in 6.2 mi West 8.1 mph - N/A   Mostly Cloudy
4:55 PM 42.8 °F 39.3 °F 39.2 °F 87% 30.06 in 6.2 mi West 5.8 mph - N/A   Unknown
5:00 PM 43 °F - 39 °F 82% 30.12 in 9 mi West 6.7 mph - -   Partly Cloudy
5:25 PM 42.8 °F 40.1 °F 39.2 °F 87% 30.09 in 6.2 mi West 4.6 mph - N/A   Mostly Cloudy
5:55 PM 41.0 °F 37.1 °F 37.4 °F 87% 30.12 in 6.2 mi West 5.8 mph - N/A   Partly Cloudy
6:00 PM 41 °F - 37 °F 81% 30.16 in 11 mi West 6.7 mph - -   Partly Cloudy
6:25 PM 41.0 °F 38.0 °F 37.4 °F 87% 30.12 in 6.2 mi West 4.6 mph - N/A   Unknown
6:55 PM 39.2 °F 35.9 °F 35.6 °F 87% 30.15 in 6.2 mi West 4.6 mph - N/A   Unknown
7:00 PM 40 °F - 36 °F 78% 30.19 in 12 mi West 2.2 mph - -   Partly Cloudy
7:25 PM 37.4 °F 33.8 °F 35.6 °F 93% 30.15 in 6.2 mi WSW 4.6 mph - N/A   Unknown
7:55 PM 35.6 °F 31.7 °F 33.8 °F 93% 30.18 in 6.2 mi WSW 4.6 mph - N/A   Unknown
8:00 PM 37 °F - 35 °F 91% 30.21 in 11 mi SW 4.5 mph - -  
8:25 PM 35.6 °F 31.7 °F 35.6 °F 100% 30.18 in 6.2 mi SW 4.6 mph - N/A   Unknown
8:55 PM 37.4 °F 32.1 °F 33.8 °F 87% 30.18 in 6.2 mi WSW 6.9 mph - N/A   Unknown
9:00 PM 37 °F - 35 °F 88% 30.24 in 12 mi WSW 6.7 mph - -   Scattered Clouds
9:25 PM 37.4 °F 32.8 °F 33.8 °F 87% 30.21 in 6.2 mi West 5.8 mph - N/A   Partly Cloudy
9:55 PM 37.4 °F 32.8 °F 33.8 °F 87% 30.21 in 6.2 mi WSW 5.8 mph - N/A   Unknown
10:00 PM 35 °F - 33 °F 89% 30.26 in 11 mi SW 6.7 mph - -  
10:25 PM 33.8 °F 27.7 °F 32.0 °F 93% 30.21 in 6.2 mi SW 6.9 mph - N/A   Unknown
10:55 PM 33.8 °F 27.7 °F 33.8 °F 100% 30.21 in 6.2 mi SSW 6.9 mph - N/A   Unknown
11:00 PM 34 °F - 32 °F 91% 30.27 in 6 mi SW 6.7 mph - -  
11:25 PM 35.6 °F 29.2 °F 33.8 °F 93% 30.24 in 5.6 mi SW 8.1 mph - N/A   Mostly Cloudy
11:55 PM 35.6 °F 30.7 °F 33.8 °F 93% 30.24 in 6.2 mi SW 5.8 mph - N/A   Mostly Cloudy